Location: Hurstbourne Priors
(51.2000°N, 1.3667°W)
Time: 18:20:09
(UTC+00:00)

Cosmos 1339 Rocket - Pass Details

Date: 09 April 2020
Orbit: 941 x 1007 km, 82.9° (Epoch: 23 May)

Event Time Altitude Azimuth Distance (km) Brightness Sun altitude
Exits shadow 22:42:40 76° 147° (SSE) 1,043 4.4 -28.1°
Maximum altitude 22:43:08 81° 97° (E) 1,026 4.4 -28.1°
Drops below altitude 10° 22:49:34 10° 12° (NNE) 2,794 7.6 -28.5°
Sets 22:52:07 0° 11° (NNE) 3,745 8.4 -28.6°
